ROMMA est une association bénévole à but non lucratif. Votre soutien est indispensable : ADHERER à ROMMA ou FAIRE un DON

Le Versoud - (38, Isère)

Vallée du Grésivaudan (220 m)   Longitude: 05° 51' 44" E   Latitude: 45° 13' 06" N Station partenaire n°6
 

Détail journalier du     <<     >>

Température Humidité Pression Vent Dir Rafale Dir. rafale Ensol.
Heure (°C) (%) (hPa) (km/h) (km/h) (min)
01:00 19.284101200---0
02:00 18.187101200---0
03:00 17.288101200---0
04:00 16.789101100---0
05:00 15.990101100---0
06:00 15.789101200---0
07:00 16.092101200---0
08:00 17.387101200---15
09:00 19.278101308SSO25
10:00 20.172101305SSO15
11:00 22.962101203SSO60
12:00 25.452101105SSO60
13:00 27.449101003SSO35
14:00 28.743101003SSO50
15:00 29.738100908S50
16:00 29.93710081SSO18SSO35
17:00 31.13510083SSO18O50
18:00 30.43410086SSO24SSE60
19:00 30.83510082S18SSO55
20:00 27.84810091NE16ENE55
21:00 25.261100902NE20
22:00 22.662101000---0
23:00 20.971101100---0
minuit 19.969101200---0

Graphique du 19-06-2019

 

Serveur OMMA